• In Österreich
  • Länderverzeichnis
  • Für 7 Tage
  • Wassertemperatur
  • Satellitenkarten
  • Wetterkarte
  • News
  • Widgets
  • user-avatar
    Anmelden

    Stündliche Wetter Elbasan

    Heute, 22 Mai, Dienstag

    Zeit Temperatur Niederschläge Wind Luftdruck Luftfeuchtigkeit
    00:00 +17°C° 0,1 mm 2 m/S 734 mmHg 85%
    01:00 +18°C° 0 mm 1 m/S 734 mmHg 85%
    02:00 +18°C° 0,1 mm 1 m/S 734 mmHg 85%
    03:00 +17°C° 0,1 mm 2 m/S 734 mmHg 85%
    04:00 +17°C° 0,1 mm 2 m/S 734 mmHg 86%
    05:00 +18°C° 0 mm 2 m/S 735 mmHg 81%
    06:00 +20°C° 0 mm 2 m/S 735 mmHg 77%
    07:00 +23°C° 0 mm 1 m/S 735 mmHg 72%
    08:00 +24°C° 0,4 mm 1 m/S 735 mmHg 66%
    09:00 +25°C° 0,4 mm 1 m/S 735 mmHg 60%
    10:00 +27°C° 0,4 mm 1 m/S 735 mmHg 53%
    11:00 +27°C° 0,8 mm 2 m/S 735 mmHg 53%
    12:00 +27°C° 0,8 mm 2 m/S 735 mmHg 53%
    13:00 +28°C° 0 mm 2 m/S 736 mmHg 52%
    14:00 +28°C° 0,9 mm 2 m/S 736 mmHg 53%
    15:00 +27°C° 0,9 mm 1 m/S 736 mmHg 53%
    16:00 +27°C° 0,9 mm 1 m/S 736 mmHg 54%
    17:00 +25°C° 0,3 mm 1 m/S 736 mmHg 61%
    18:00 +24°C° 0,3 mm 1 m/S 736 mmHg 67%
    19:00 +20°C° 0,3 mm 0 m/S 736 mmHg 73%
    20:00 +21°C° 0,1 mm 1 m/S 736 mmHg 74%
    21:00 +21°C° 0,1 mm 1 m/S 736 mmHg 74%
    22:00 +20°C° 0,1 mm 1 m/S 736 mmHg 75%
    23:00 +20°C° 0 mm 1 m/S 736 mmHg 74%

    Morgen, 23 Mai, Mittwoch

    Zeit Temperatur Niederschläge Wind Luftdruck Luftfeuchtigkeit
    00:00 +19°C° 0 mm 2 m/S 736 mmHg 74%
    01:00 +18°C° 0 mm 2 m/S 736 mmHg 73%
    02:00 +18°C° 0 mm 2 m/S 736 mmHg 73%
    03:00 +18°C° 0 mm 2 m/S 736 mmHg 73%
    04:00 +18°C° 0 mm 2 m/S 736 mmHg 73%
    05:00 +19°C° 0 mm 2 m/S 736 mmHg 71%
    06:00 +22°C° 0 mm 1 m/S 736 mmHg 69%
    07:00 +23°C° 0 mm 1 m/S 736 mmHg 67%
    08:00 +24°C° 0,3 mm 1 m/S 736 mmHg 64%
    09:00 +25°C° 0,3 mm 2 m/S 736 mmHg 61%
    10:00 +27°C° 0,3 mm 2 m/S 736 mmHg 57%
    11:00 +26°C° 0,7 mm 2 m/S 736 mmHg 59%
    12:00 +26°C° 0,7 mm 2 m/S 736 mmHg 60%
    13:00 +26°C° 0,7 mm 3 m/S 736 mmHg 61%
    14:00 +25°C° 1,5 mm 2 m/S 735 mmHg 66%
    15:00 +24°C° 1,5 mm 2 m/S 735 mmHg 71%
    16:00 +23°C° 1,5 mm 2 m/S 735 mmHg 75%
    17:00 +23°C° 0,5 mm 2 m/S 735 mmHg 77%
    18:00 +21°C° 0,5 mm 2 m/S 735 mmHg 78%
    19:00 +21°C° 0,5 mm 1 m/S 735 mmHg 79%
    20:00 +20°C° 0,4 mm 1 m/S 735 mmHg 80%
    21:00 +20°C° 0,4 mm 1 m/S 735 mmHg 81%
    22:00 +19°C° 0,4 mm 2 m/S 735 mmHg 82%
    23:00 +18°C° 0,2 mm 2 m/S 735 mmHg 82%

    übermorgen, 24 Mai, Donnerstag

    Zeit Temperatur Niederschläge Wind Luftdruck Luftfeuchtigkeit
    00:00 +19°C° 0,2 mm 1 m/S 735 mmHg 83%
    01:00 +19°C° 0,2 mm 1 m/S 735 mmHg 83%
    02:00 +18°C° 0,2 mm 1 m/S 735 mmHg 84%
    03:00 +18°C° 0,2 mm 1 m/S 734 mmHg 84%
    04:00 +18°C° 0,2 mm 1 m/S 734 mmHg 84%
    05:00 +19°C° 0 mm 1 m/S 734 mmHg 80%
    06:00 +20°C° 0 mm 1 m/S 735 mmHg 77%
    07:00 +22°C° 0 mm 1 m/S 735 mmHg 73%
    08:00 +23°C° 0,2 mm 1 m/S 735 mmHg 70%
    09:00 +24°C° 0,2 mm 2 m/S 735 mmHg 66%
    10:00 +25°C° 0,2 mm 2 m/S 735 mmHg 63%
    11:00 +25°C° 0,6 mm 2 m/S 734 mmHg 63%
    12:00 +25°C° 0,6 mm 3 m/S 734 mmHg 63%
    13:00 +26°C° 0,6 mm 3 m/S 734 mmHg 64%
    14:00 +25°C° 0,8 mm 3 m/S 734 mmHg 66%
    15:00 +25°C° 0,8 mm 3 m/S 733 mmHg 68%
    16:00 +24°C° 0,8 mm 3 m/S 733 mmHg 71%
    17:00 +23°C° 0,3 mm 2 m/S 733 mmHg 77%
    18:00 +21°C° 0,3 mm 2 m/S 733 mmHg 83%
    19:00 +20°C° 0,3 mm 1 m/S 733 mmHg 89%
    20:00 +20°C° 0,2 mm 1 m/S 734 mmHg 89%
    21:00 +20°C° 0,2 mm 1 m/S 734 mmHg 90%
    22:00 +19°C° 0,2 mm 1 m/S 734 mmHg 90%
    23:00 +19°C° 0 mm 1 m/S 734 mmHg 90%

    25 Mai, Freitag

    Zeit Temperatur Niederschläge Wind Luftdruck Luftfeuchtigkeit
    00:00 +19°C° 0 mm 1 m/S 734 mmHg 89%
    01:00 +18°C° 0 mm 1 m/S 734 mmHg 88%
    02:00 +18°C° 0 mm 1 m/S 734 mmHg 87%
    03:00 +18°C° 0 mm 1 m/S 734 mmHg 86%
    04:00 +18°C° 0 mm 1 m/S 733 mmHg 85%
    05:00 +19°C° 0 mm 1 m/S 734 mmHg 80%
    06:00 +21°C° 0 mm 1 m/S 734 mmHg 75%
    07:00 +23°C° 0 mm 1 m/S 734 mmHg 70%
    08:00 +24°C° 0,1 mm 1 m/S 734 mmHg 65%
    09:00 +26°C° 0,1 mm 2 m/S 734 mmHg 60%
    10:00 +27°C° 0,1 mm 2 m/S 734 mmHg 54%
    11:00 +27°C° 0,2 mm 2 m/S 734 mmHg 53%
    12:00 +28°C° 0,2 mm 3 m/S 734 mmHg 52%
    13:00 +28°C° 0,2 mm 3 m/S 734 mmHg 51%
    14:00 +28°C° 0,5 mm 3 m/S 734 mmHg 53%
    15:00 +28°C° 0,5 mm 3 m/S 734 mmHg 55%
    16:00 +27°C° 0,5 mm 3 m/S 734 mmHg 57%
    17:00 +25°C° 0,2 mm 2 m/S 734 mmHg 63%
    18:00 +24°C° 0,2 mm 2 m/S 734 mmHg 70%
    19:00 +21°C° 0,2 mm 2 m/S 734 mmHg 76%
    20:00 +20°C° 0 mm 2 m/S 734 mmHg 77%
    21:00 +20°C° 0 mm 2 m/S 735 mmHg 78%
    22:00 +19°C° 0 mm 2 m/S 735 mmHg 79%
    23:00 +19°C° 0 mm 2 m/S 735 mmHg 78%

    26 Mai, Samstag

    Zeit Temperatur Niederschläge Wind Luftdruck Luftfeuchtigkeit
    00:00 +18°C° 0 mm 2 m/S 735 mmHg 78%
    01:00 +18°C° 0 mm 2 m/S 735 mmHg 78%
    02:00 +18°C° 0 mm 2 m/S 735 mmHg 78%
    03:00 +17°C° 0 mm 2 m/S 735 mmHg 78%
    04:00 +17°C° 0 mm 2 m/S 735 mmHg 79%
    05:00 +19°C° 0 mm 2 m/S 735 mmHg 75%
    06:00 +21°C° 0 mm 2 m/S 736 mmHg 72%
    07:00 +23°C° 0 mm 2 m/S 736 mmHg 68%
    08:00 +25°C° 0 mm 2 m/S 736 mmHg 61%
    09:00 +26°C° 0 mm 2 m/S 736 mmHg 55%
    10:00 +28°C° 0 mm 2 m/S 736 mmHg 48%
    11:00 +28°C° 0 mm 2 m/S 736 mmHg 47%
    12:00 +29°C° 0 mm 3 m/S 736 mmHg 45%
    13:00 +29°C° 0 mm 3 m/S 736 mmHg 44%
    14:00 +29°C° 0,1 mm 3 m/S 736 mmHg 46%
    15:00 +29°C° 0,1 mm 3 m/S 735 mmHg 48%
    16:00 +29°C° 0,1 mm 3 m/S 735 mmHg 50%
    17:00 +27°C° 0,1 mm 3 m/S 735 mmHg 57%
    18:00 +25°C° 0,1 mm 3 m/S 735 mmHg 65%
    19:00 +23°C° 0,1 mm 2 m/S 736 mmHg 72%
    20:00 +21°C° 0 mm 2 m/S 736 mmHg 73%
    21:00 +21°C° 0 mm 2 m/S 736 mmHg 74%
    22:00 +20°C° 0 mm 2 m/S 736 mmHg 76%
    23:00 +20°C° 0 mm 2 m/S 736 mmHg 76%

    27 Mai, Sonntag

    Zeit Temperatur Niederschläge Wind Luftdruck Luftfeuchtigkeit
    00:00 +19°C° 0 mm 2 m/S 736 mmHg 76%
    01:00 +19°C° 0 mm 2 m/S 736 mmHg 77%
    02:00 +19°C° 0 mm 2 m/S 736 mmHg 78%
    03:00 +19°C° 0 mm 2 m/S 736 mmHg 78%
    04:00 +18°C° 0 mm 2 m/S 736 mmHg 79%
    05:00 +20°C° 0 mm 2 m/S 736 mmHg 76%
    06:00 +23°C° 0 mm 2 m/S 737 mmHg 73%
    07:00 +24°C° 0 mm 2 m/S 737 mmHg 70%
    08:00 +26°C° 0,1 mm 2 m/S 737 mmHg 65%
    09:00 +27°C° 0,1 mm 2 m/S 737 mmHg 59%
    10:00 +28°C° 0,1 mm 2 m/S 737 mmHg 53%
    11:00 +29°C° 0,2 mm 2 m/S 737 mmHg 52%
    12:00 +29°C° 0,2 mm 2 m/S 737 mmHg 51%
    13:00 +30°C° 0,2 mm 2 m/S 736 mmHg 49%
    14:00 +29°C° 0,3 mm 2 m/S 736 mmHg 51%
    15:00 +29°C° 0,3 mm 2 m/S 736 mmHg 53%
    16:00 +29°C° 0,3 mm 3 m/S 736 mmHg 55%
    17:00 +27°C° 0 mm 2 m/S 736 mmHg 60%
    18:00 +25°C° 0 mm 2 m/S 736 mmHg 65%
    19:00 +24°C° 0 mm 2 m/S 736 mmHg 71%
    20:00 +23°C° 0 mm 2 m/S 736 mmHg 73%
    21:00 +21°C° 0 mm 2 m/S 737 mmHg 74%
    22:00 +20°C° 0 mm 2 m/S 737 mmHg 76%
    23:00 +19°C° 0 mm 2 m/S 737 mmHg 75%
    Mehr zeigen